Location: Newark
(39.0622°N, 106.5590°E)
Time: 12:28:00
(UTC+00:00)

S-56A Canister/Altair - Pass Details

Date: 23 January 2020
Orbit: 633 x 2499 km, 38.9° (Epoch: 19 February)

Event Time Altitude Azimuth Distance (km) Brightness Sun altitude
Rises 11:47:20 0° 211° (SSW) 4,453 12.0 -20.1°
Reaches altitude 10° 11:51:29 10° 197° (SSW) 3,123 10.9 -20.9°
Maximum altitude 11:56:46 21° 151° (SSE) 1,986 9.4 -21.9°
Enters shadow 11:57:36 21° 140° (SE) 1,957 9.3 -22.0°
